7 * 24
多渠道服务支持
STARLINK-36171是美国SpaceX星链星座的一员,于2025年12月10日发射升空。作为星链互联网星座组网卫星,它承担着为全球提供高速低延迟宽带互联网服务的使命,尤其覆盖偏远地区,助力缩小数字鸿沟,进一步扩充了星链星座的服务覆盖范围与网络容量。
美国
(US)
| 数据来源 | 国际轨道数据 |
| 星历时间: | 2026-09-04T22:53:03+0800 10小时前 查看轨道信息 |
| 半长轴: | 6950.179km |
| 偏心率: | 0.0003145 |
| 轨道倾角: | 70.003° |
| 近地点辐角 | 270.477° |
| 升交点赤经 | 3.156° |
| 平近点角 | 89.603° |
| 近地点: | 569.856km |
| 远地点: | 574.228km |
| 周期: | 96.107分钟 |
| 每日圈数: | 14.983346 |
| 事件ID | 空间交会对象 | 最接近时刻(TCA) | 交会距离 | 交会风险概率(CRP) | 交会风险指数(CRI) | 操作 |
|---|---|---|---|---|---|---|
| CDM_260905-052504-435006-702722 |
FORMOSAT7-4/COSMIC2-4
(44350)
STARLINK-36171
(67027) | 2026-09-05T 05:25:03+0000 |
1.460 km
极远距离 | 5.13019E-6 低风险 | 0.49 | |
| CDM_260905-012806-702706-819722 |
STARLINK-36171
(67027)
CZ-6A R/B
(68197) | 2026-09-05T 01:28:42+0000 |
2.888 km
极远距离 | 1.275121E-6 低风险 | 0.37 |